Tracking 18843 objects as of 20-November-2017
HD Live streaming from Space Station
objects crossing your sky now

INTELSAT 508

Track INTELSAT 508 now!
INTELSAT 508 is classified as:


NORAD ID: 14786
Int'l Code: 1984-023A
Perigee: 36,582.4 km
Apogee: 36,718.2 km
Inclination: 16.0 °
Period: 1,480.1 minutes
Semi major axis: 43021 km
RCS: 7.6859 m2 (large)
Launch date: March 5, 1984
Source: International Telecommunications Satellite Organization (ITSO)
Launch site: FRENCH GUIANA (FRGUI)
aabbcc
Your satellite tracking list
Your tracking list is empty




NASA's NSSDC Master Catalog

Two Line Element Set (TLE):
1 14786U 84023A   17323.51785279 -.00000124 +00000-0 +00000-0 0  9991
2 14786 015.9693 003.1665 0015784 165.6832 018.2007 00.97292127015494
Source of the keplerian elements: AFSPC